• In Italy
  • List of Countries
  • For 7 days
  • Water Temperature
  • Satellite Maps
  • Weather Map
  • Weather Widgets
  • user-avatar
    Login

    Hourly Weather Verhnyaya Senda

    Today, 21 September, Friday

    Time Temperature Precipitation Wind Pressure Humidity
    00:00 +8°C° 0 mm 1 mps 746 mmHg 90%
    01:00 +8°C° 0 mm 1 mps 747 mmHg 90%
    02:00 +7°C° 0 mm 1 mps 747 mmHg 90%
    03:00 +7°C° 0 mm 1 mps 747 mmHg 90%
    04:00 +7°C° 0 mm 1 mps 748 mmHg 90%
    05:00 +7°C° 0 mm 1 mps 748 mmHg 90%
    06:00 +6°C° 0 mm 1 mps 748 mmHg 89%
    07:00 +8°C° 0 mm 1 mps 749 mmHg 83%
    08:00 +10°C° 0 mm 1 mps 749 mmHg 76%
    09:00 +12°C° 0 mm 1 mps 749 mmHg 70%
    10:00 +13°C° 0 mm 1 mps 749 mmHg 70%
    11:00 +13°C° 0 mm 2 mps 749 mmHg 70%
    12:00 +14°C° 0 mm 2 mps 749 mmHg 70%
    13:00 +15°C° 0 mm 2 mps 750 mmHg 72%
    14:00 +14°C° 0 mm 3 mps 750 mmHg 74%
    15:00 +16°C° 0 mm 3 mps 750 mmHg 76%
    16:00 +15°C° 0 mm 2 mps 750 mmHg 81%
    17:00 +15°C° 0 mm 2 mps 750 mmHg 87%
    18:00 +14°C° 0 mm 2 mps 750 mmHg 92%
    19:00 +14°C° 0 mm 2 mps 751 mmHg 93%
    20:00 +13°C° 0 mm 1 mps 751 mmHg 94%
    21:00 +13°C° 0 mm 1 mps 751 mmHg 95%
    22:00 +13°C° 0 mm 2 mps 751 mmHg 95%
    23:00 +13°C° 0 mm 2 mps 751 mmHg 95%

    Tomorrow, 22 September, Saturday

    Time Temperature Precipitation Wind Pressure Humidity
    00:00 +13°C° 0 mm 2 mps 751 mmHg 95%
    01:00 +13°C° 0 mm 2 mps 751 mmHg 96%
    02:00 +13°C° 0 mm 2 mps 751 mmHg 96%
    03:00 +13°C° 0 mm 2 mps 751 mmHg 96%
    04:00 +13°C° 0 mm 2 mps 751 mmHg 96%
    05:00 +13°C° 0 mm 2 mps 751 mmHg 96%
    06:00 +13°C° 0 mm 2 mps 751 mmHg 97%
    07:00 +13°C° 0 mm 3 mps 752 mmHg 93%
    08:00 +16°C° 0 mm 3 mps 752 mmHg 89%
    09:00 +18°C° 0 mm 3 mps 752 mmHg 85%
    10:00 +19°C° 0.3 mm 3 mps 752 mmHg 81%
    11:00 +20°C° 0.3 mm 4 mps 752 mmHg 77%
    12:00 +22°C° 0.3 mm 4 mps 751 mmHg 73%
    13:00 +22°C° 0.6 mm 4 mps 751 mmHg 73%
    14:00 +22°C° 0.6 mm 4 mps 751 mmHg 72%
    15:00 +22°C° 0.6 mm 3 mps 751 mmHg 72%
    16:00 +21°C° 0.2 mm 3 mps 751 mmHg 77%
    17:00 +19°C° 0.2 mm 2 mps 751 mmHg 82%
    18:00 +18°C° 0.2 mm 2 mps 751 mmHg 88%
    19:00 +17°C° 0 mm 2 mps 751 mmHg 89%
    20:00 +17°C° 0 mm 2 mps 751 mmHg 90%
    21:00 +16°C° 0 mm 2 mps 751 mmHg 90%
    22:00 +16°C° 0 mm 2 mps 751 mmHg 91%
    23:00 +15°C° 0 mm 2 mps 751 mmHg 92%

    Day after tomorrow, 23 September, Sunday

    Time Temperature Precipitation Wind Pressure Humidity
    00:00 +15°C° 0 mm 2 mps 751 mmHg 92%
    01:00 +15°C° 0 mm 2 mps 751 mmHg 93%
    02:00 +14°C° 0 mm 2 mps 751 mmHg 93%
    03:00 +14°C° 0 mm 2 mps 751 mmHg 94%
    04:00 +14°C° 0 mm 2 mps 751 mmHg 94%
    05:00 +14°C° 0 mm 2 mps 751 mmHg 94%
    06:00 +14°C° 0 mm 2 mps 751 mmHg 95%
    07:00 +14°C° 0 mm 3 mps 751 mmHg 90%
    08:00 +17°C° 0 mm 3 mps 751 mmHg 85%
    09:00 +18°C° 0 mm 3 mps 750 mmHg 79%
    10:00 +20°C° 0 mm 4 mps 750 mmHg 74%
    11:00 +21°C° 0 mm 4 mps 750 mmHg 68%
    12:00 +22°C° 0 mm 5 mps 750 mmHg 62%
    13:00 +22°C° 0 mm 5 mps 749 mmHg 63%
    14:00 +22°C° 0 mm 5 mps 749 mmHg 63%
    15:00 +22°C° 0 mm 5 mps 749 mmHg 63%
    16:00 +21°C° 0 mm 5 mps 749 mmHg 68%
    17:00 +19°C° 0 mm 5 mps 748 mmHg 74%
    18:00 +18°C° 0 mm 4 mps 748 mmHg 79%
    19:00 +17°C° 0 mm 4 mps 748 mmHg 80%
    20:00 +16°C° 0 mm 5 mps 748 mmHg 80%
    21:00 +16°C° 0 mm 5 mps 748 mmHg 80%
    22:00 +15°C° 0 mm 5 mps 747 mmHg 81%
    23:00 +15°C° 0 mm 5 mps 747 mmHg 81%

    24 September, Monday

    Time Temperature Precipitation Wind Pressure Humidity
    00:00 +15°C° 0 mm 5 mps 746 mmHg 81%
    01:00 +14°C° 0 mm 5 mps 746 mmHg 81%
    02:00 +14°C° 0 mm 5 mps 745 mmHg 81%
    03:00 +14°C° 0 mm 5 mps 745 mmHg 82%
    04:00 +13°C° 0 mm 5 mps 745 mmHg 80%
    05:00 +13°C° 0 mm 5 mps 744 mmHg 78%
    06:00 +12°C° 0 mm 5 mps 744 mmHg 76%
    07:00 +14°C° 0 mm 5 mps 744 mmHg 69%
    08:00 +15°C° 0 mm 6 mps 744 mmHg 63%
    09:00 +16°C° 0 mm 6 mps 743 mmHg 57%
    10:00 +17°C° 0 mm 6 mps 743 mmHg 53%
    11:00 +18°C° 0 mm 7 mps 743 mmHg 50%
    12:00 +20°C° 0 mm 7 mps 743 mmHg 46%
    13:00 +20°C° 0 mm 6 mps 743 mmHg 48%
    14:00 +20°C° 0 mm 6 mps 743 mmHg 50%
    15:00 +20°C° 0 mm 5 mps 743 mmHg 52%
    16:00 +19°C° 0 mm 4 mps 743 mmHg 57%
    17:00 +17°C° 0 mm 3 mps 743 mmHg 62%
    18:00 +16°C° 0 mm 3 mps 743 mmHg 67%
    19:00 +15°C° 0 mm 2 mps 743 mmHg 71%
    20:00 +14°C° 0 mm 2 mps 743 mmHg 75%
    21:00 +13°C° 0 mm 2 mps 743 mmHg 79%
    22:00 +13°C° 0 mm 2 mps 743 mmHg 81%
    23:00 +13°C° 0 mm 1 mps 743 mmHg 83%

    25 September, Tuesday

    Time Temperature Precipitation Wind Pressure Humidity
    00:00 +12°C° 0 mm 1 mps 743 mmHg 85%
    01:00 +12°C° 0.1 mm 1 mps 743 mmHg 86%
    02:00 +12°C° 0.1 mm 1 mps 743 mmHg 87%
    03:00 +12°C° 0.1 mm 1 mps 742 mmHg 88%
    04:00 +12°C° 0.1 mm 1 mps 742 mmHg 90%
    05:00 +11°C° 0.1 mm 1 mps 742 mmHg 91%
    06:00 +11°C° 0.1 mm 1 mps 742 mmHg 93%
    07:00 +10°C° 0 mm 2 mps 742 mmHg 90%
    08:00 +11°C° 0 mm 3 mps 742 mmHg 87%
    09:00 +11°C° 0 mm 4 mps 741 mmHg 85%
    10:00 +12°C° 0 mm 4 mps 742 mmHg 78%
    11:00 +12°C° 0 mm 5 mps 742 mmHg 72%
    12:00 +13°C° 0 mm 5 mps 742 mmHg 65%
    13:00 +12°C° 0.6 mm 5 mps 741 mmHg 71%
    14:00 +10°C° 0.6 mm 5 mps 741 mmHg 77%
    15:00 +9°C° 0.6 mm 5 mps 741 mmHg 84%
    16:00 +9°C° 1 mm 6 mps 741 mmHg 85%
    17:00 +9°C° 1 mm 6 mps 740 mmHg 87%
    18:00 +9°C° 1 mm 7 mps 740 mmHg 89%
    19:00 +9°C° 0.3 mm 7 mps 739 mmHg 89%
    20:00 +9°C° 0.3 mm 6 mps 739 mmHg 89%
    21:00 +9°C° 0.3 mm 6 mps 739 mmHg 88%
    22:00 +9°C° 0.2 mm 6 mps 738 mmHg 87%
    23:00 +9°C° 0.2 mm 6 mps 738 mmHg 85%

    26 September, Wednesday

    Time Temperature Precipitation Wind Pressure Humidity
    00:00 +9°C° 0.2 mm 6 mps 738 mmHg 84%
    01:00 +8°C° 0.1 mm 6 mps 737 mmHg 84%
    02:00 +8°C° 0.1 mm 6 mps 737 mmHg 84%
    03:00 +7°C° 0.1 mm 6 mps 737 mmHg 84%
    04:00 +6°C° 0.1 mm 7 mps 736 mmHg 84%
    05:00 +6°C° 0.1 mm 7 mps 736 mmHg 85%
    06:00 +5°C° 0.1 mm 7 mps 736 mmHg 86%
    07:00 +6°C° 0.2 mm 8 mps 736 mmHg 85%
    08:00 +6°C° 0.2 mm 8 mps 736 mmHg 84%
    09:00 +6°C° 0.2 mm 8 mps 735 mmHg 83%
    10:00 +7°C° 0.3 mm 8 mps 736 mmHg 83%
    11:00 +7°C° 0.3 mm 8 mps 736 mmHg 84%
    12:00 +9°C° 0.3 mm 8 mps 737 mmHg 84%
    13:00 +7°C° 0.4 mm 8 mps 737 mmHg 84%
    14:00 +8°C° 0.4 mm 7 mps 738 mmHg 85%
    15:00 +8°C° 0.4 mm 7 mps 738 mmHg 85%
    16:00 +8°C° 0.1 mm 7 mps 739 mmHg 85%
    17:00 +8°C° 0.1 mm 6 mps 740 mmHg 85%
    18:00 +8°C° 0.1 mm 6 mps 741 mmHg 86%
    19:00 +7°C° 0.1 mm 6 mps 742 mmHg 86%
    20:00 +7°C° 0.1 mm 6 mps 742 mmHg 87%
    21:00 +7°C° 0.1 mm 6 mps 743 mmHg 88%
    22:00 +7°C° 0.3 mm 6 mps 744 mmHg 88%
    23:00 +5°C° 0.3 mm 6 mps 744 mmHg 87%
    Show more